SCP
0 0 0 0 0 0 0 0 0 0 0 0 0 0 0 0 0 0 0 0 0 0 0 0 0 0 0 0 0 0 0 0 0 0 0 0 0 0 0 0 0 0 0
0 0 0 0 0 0 0 0 0 0 0 0 0 0 0 0 0 0 0 0 0 0 0 0 0 0 0 0 0 0 0 0 0 0 0 0 0 0 0 0 0 0 0
0 0 0 0 0 0 0 0 0 0 0 0 0 0 0 0 0 0 0 0 0 0 0 0 0 0 0 0 0 0 0 0 0 0 0 0 0 0 0 0 0 0 0
0 0 0 0 0 0 0 0 0 0 0 0 0 0 0 0 0 0 0 0 0 0 0 0 0 0 0 0 0 0 0 0 0 0 0 0 0 0 0 0 0 0 0
0 0 0 0 0 0 0 0 0 0 0 0 0 0 0 0 0 0 0 0 0 0 0 0 0 0 0 0 0 0 0 0 0 0 0 0 0 0 0 0 0 0 0
0 0 0 0 0 0 0 0 0 0 0 0 0 0 0 0 0 0 0 0 0 0 0 0 0 0 0 0 0 0 0 0 0 0 0 0 0 0 0 0 0 0 0
0 0 0 0 0 0 0 0 0 0 0 0 0 0 0 0 0 0 0 0 0 0 0 0 0 0 0 0 0 0 0 0 0 0 0 0 0 0 0 0 0 0 0
0 0 0 0 0 0 0 0 0 0 0 0 0 0 0 0 0 0 0 0 0 0 0 0 0 0 0 0 0 0 0 0 0 0 0 0 0 0 0 0 0 0 0
0 0 0 0 0 0 0 0 0 0 0 0 0 0 0 0 0 0 0 0 0 0 0 0 0 0 0 0 0 0 0 0 0 0 0 0 0 0 0 0 0 0 0
0 0 0 0 0 0 0 0 0 0 0 0 0 0 0 0 0 0 0 0 0 0 0 0 0 0 0 0 0 0 0 0 0 0 0 0 0 0 0 0 0 0 0
-0 -0 0 0 0 0 0 0 0 0 0 0 0 0 0 0 0 0 0 0 0 0 0 0 0 0 0 0 0 0 0 0 0 0 0 0 0 0 0 0 0 0 0
0 0 0 0 0 0 0 0 0 0 0 0 0 0 0 0 0 0 0 0 0 0 0 0 0 0 0 0 0 0 0 0 0 0 0 0 0 0 0 0 0 0 0
0 0 0 0 0 0 0 0 0 0 0 0 0 0 0 0 0 0 0 0 0 0 0 0 0 0 0 0 0 0 0 0 0 0 0 0 0 0 0 0 0 0 0
0 0 0 0 0 0 0 0 0 0 0 0 0 0 0 0 0 0 0 0 0 0 0 0 0 0 0 0 0 0 0 0 0 0 0 0 0 0 0 0 0 0 0
0 0 0 0 0 0 0 0 0 0 0 0 0 0 0 0 0 0 0 0 0 0 0 0 0 0 0 0 0 0 0 0 0 0 0 0 0 0 0 0 0 0 0
0 0 0 0 0 0 0 0 0 0 0 0 0 0 0 0 0 0 0 0 0 0 0 0 0 0 0 0 0 0 0 0 0 0 0 0 0 0 0 0 0 0 0
0 0 0 0 0 0 0 0 0 0 0 0 0 0 0 0 0 0 0 0 0 0 0 0 0 0 0 0 0 0 0 0 0 0 0 0 0 0 0 0 0 0 0
0 0 0 0 0 0 0 0 0 0 0 0 0 0 0 0 0 0 0 0 0 0 0 0 0 0 0 0 0 0 0 0 0 0 0 0 0 0 0 0 0 0 0
0 0 0 0 0 0 0 0 0 0 0 0 0 0 0 0 0 0 0 0 0 0 0 0 0 0 0 0 0 0 0 0 0 0 0 0 0 0 0 0 0 0 0
0 0 0 0 0 0 0 0 0 0 0 0 0 0 0 0 0 0 0 0 0 0 0 0 0 0 0 0 0 0 0 0 0 0 0 0 0 0 0 0 0 0 0
0 0 0 0 0 0 0 0 0 0 0 0 0 0 0 0 0 0 0 0 0 0 0 0 0 0 0 0 0 0 0 0 0 0 0 0 0 0 0 0 0 0 0
0 0 0 0 0 0 0 0 0 0 0 0 0 0 0 0 0 0 0 0 0 0 0 0 0 0 0 0 0 0 0 0 0 0 0 0 0 0 0 0 0 0 0
0 0 0 0 0 0 0 0 0 0 0 0 0 0 0 0 0 0 0 0 0 0 0 0 0 0 0 0 0 0 0 0 0 0 0 0 0 0 0 0 0 0 0
0 0 0 0 0 0 0 0 0 0 0 0 0 0 0 0 0 0 0 0 0 0 0 0 0 0 0 0 0 0 0 0 0 0 0 0 0 0 0 0 0 0 0
0 0 0 0 0 0 0 0 0 0 0 0 0 0 0 0 0 0 0 0 0 0 0 0 0 0 0 0 0 0 0 0 0 0 0 0 0 0 0 0 0 0 0
0 0 0 0 0 0 0 0 0 0 0 0 0 0 0 0 0 0 0 0 0 0 0 0 0 0 0 0 0 0 0 0 0 0 0 0 0 0 0 0 0 0 0
Wind_Speed_500mb
15 11 7 5 7 8 12 17 23 28 32 39 44 50 54 58 64 70 77 82 86 86 90 93 97 96 98 103 98 104 105 105 108 104 100 96 93 87 79 87 95 93 94
17 13 10 6 4 8 14 20 24 28 33 39 43 48 52 55 59 64 70 76 81 83 85 89 92 91 96 99 104 103 98 104 100 105 103 101 98 92 84 84 90 101 100
14 11 10 10 12 17 24 28 32 36 39 42 47 51 55 57 58 61 65 69 74 78 80 84 85 82 83 88 97 102 99 100 96 98 98 100 94 89 84 89 88 88 89
22 24 26 28 30 33 35 37 40 43 46 49 50 53 55 58 60 62 64 68 72 77 79 81 79 81 84 84 88 95 93 94 96 94 96 98 97 93 86 93 91 92 103
23 25 27 30 35 37 40 43 46 49 51 53 55 57 58 61 63 63 65 68 72 77 79 79 79 79 79 80 86 91 92 92 94 94 96 96 97 95 98 97 94 92 89
26 27 28 29 32 35 37 38 40 42 45 48 51 55 57 58 57 60 64 71 74 79 82 82 81 79 81 81 79 81 86 87 90 93 93 99 101 101 94 98 93 85 84
30 34 36 38 40 44 46 48 51 52 54 57 58 59 61 62 62 62 62 69 76 80 83 83 82 79 78 79 79 83 88 91 91 90 91 93 92 96 96 92 88 88 86
35 38 42 46 48 49 51 54 55 58 60 62 64 67 71 67 66 68 68 72 79 81 82 83 82 81 79 76 77 84 86 90 91 88 93 87 85 84 80 81 85 73 72
44 47 50 52 53 55 57 57 58 62 64 66 68 69 72 74 71 68 67 77 83 85 86 84 80 79 80 74 76 80 84 86 84 78 78 81 80 72 64 61 73 74 70
56 57 56 56 59 62 64 63 62 63 67 65 66 67 73 78 74 74 69 70 79 85 88 89 81 75 73 75 76 77 82 82 79 73 73 67 59 55 59 60 69 75 76
55 58 59 61 64 65 72 72 74 74 74 73 75 72 70 71 75 75 74 74 75 78 84 88 86 69 67 72 73 72 72 68 66 64 63 61 62 57 58 55 60 65 73
57 60 63 66 68 71 73 77 78 80 84 85 85 87 82 80 75 74 74 74 73 73 81 81 82 71 64 65 65 63 58 57 57 60 64 67 67 65 65 62 54 59 65
58 61 64 67 69 71 76 79 81 80 82 90 92 94 92 85 84 78 74 74 68 67 72 75 78 70 63 58 54 47 44 62 59 58 63 63 65 63 60 58 58 59 51
65 66 70 74 75 75 76 76 77 80 81 83 89 94 95 93 91 89 79 73 66 63 67 69 73 68 60 55 48 40 52 61 60 58 62 66 66 65 60 65 63 60 57
76 78 77 77 78 80 79 80 83 82 79 80 82 78 80 87 83 82 79 73 66 58 58 63 61 60 60 51 43 39 49 57 55 54 62 67 65 61 61 60 57 60 61
82 84 84 83 83 83 84 87 81 80 80 79 75 65 76 81 79 70 64 59 58 55 52 58 53 54 55 47 38 39 51 56 52 52 57 58 57 55 64 62 60 62 58
79 81 82 82 82 83 82 82 87 87 80 79 69 62 66 74 68 60 56 53 48 43 47 55 48 46 45 43 34 34 49 52 49 53 48 43 43 47 57 59 59 59 57
75 74 75 76 77 79 79 78 76 75 82 84 67 64 63 64 60 53 46 40 42 38 41 49 46 35 34 34 32 34 45 50 50 52 50 45 53 51 47 51 56 53 52
70 69 68 69 69 70 71 72 70 67 66 72 74 67 56 54 51 45 37 35 37 37 38 40 33 26 22 22 22 24 35 44 45 45 48 49 47 48 46 48 48 49 47
64 62 62 62 61 61 61 63 63 60 61 64 68 62 55 50 46 41 39 34 31 29 31 32 27 27 22 17 16 21 37 39 40 42 43 46 47 48 51 52 51 52 52
60 59 56 56 56 57 58 57 56 57 58 59 59 50 47 44 39 36 30 25 25 20 21 25 21 17 15 15 13 14 19 26 31 36 40 39 39 41 45 47 49 51 51
53 53 51 51 52 52 51 51 50 49 50 51 50 45 41 36 31 24 23 22 18 15 13 10 18 13 9 14 16 15 17 18 20 24 28 30 33 35 37 39 40 40 41
46 47 46 44 44 45 44 42 42 40 39 38 36 33 29 25 19 18 22 21 20 21 19 18 16 16 18 20 19 16 16 17 18 19 22 25 29 31 33 34 37 39 41
42 43 42 41 40 40 39 38 36 34 32 29 25 22 19 13 9 10 11 12 13 15 16 15 15 16 16 18 18 21 24 27 30 32 32 31 31 31 33 35 37 39 40
38 38 39 39 38 37 36 34 33 31 29 26 23 19 17 16 17 16 14 13 13 14 13 13 14 16 17 18 19 21 22 23 27 30 31 32 33 34 35 36 37 38 39
34 35 36 36 35 34 34 33 32 31 29 27 25 22 19 16 13 11 12 13 13 14 16 16 17 19 21 22 24 26 27 28 28 29 30 32 33 34 35 36 37 38 39
Wind_Direction_500mb
90 104 133 182 201 235 262 274 274 267 266 265 266 265 264 263 262 264 267 271 271 269 268 269 269 271 270 270 269 276 268 266 266 268 267 267 267 263 254 247 238 232 230
74 80 81 66 8 322 304 293 288 288 286 283 277 274 272 270 268 268 268 269 270 272 272 271 271 269 267 270 268 272 273 272 268 270 268 269 268 266 259 248 238 232 231
30 27 13 341 322 309 303 297 292 289 287 285 285 284 283 282 280 276 274 273 272 272 272 273 275 274 270 269 270 271 271 273 270 268 268 268 265 262 253 246 240 234 229
3 351 343 339 334 328 322 317 312 308 306 302 298 292 288 284 282 281 280 278 276 275 275 275 275 273 273 272 272 274 274 271 270 268 266 266 264 262 252 245 238 230 226
13 2 357 350 339 331 323 319 316 315 313 310 308 306 303 297 292 287 283 282 280 280 278 275 273 272 272 272 273 273 273 271 268 266 264 263 260 256 251 244 234 231 222
9 3 357 350 344 339 335 332 326 320 315 311 309 305 301 298 295 290 286 283 281 279 277 276 274 272 271 271 271 273 274 271 268 266 266 265 266 265 257 240 231 222 217
360 355 348 344 339 334 330 326 323 321 319 318 317 312 307 303 298 291 285 282 281 280 280 279 275 270 270 271 271 272 272 271 270 270 266 265 264 262 257 244 232 230 227
347 343 339 335 332 330 328 325 323 319 316 314 312 311 309 310 307 300 291 282 280 280 280 279 278 274 270 269 271 273 270 269 267 263 264 264 263 262 264 258 245 230 223
331 331 330 328 325 323 320 318 317 314 313 313 313 311 310 309 307 304 300 293 286 282 282 280 278 276 273 270 269 272 274 271 271 266 260 260 260 263 256 237 219 216 208
323 324 322 318 315 314 313 313 312 310 309 309 309 311 310 308 308 305 300 294 291 290 287 283 280 278 275 273 270 271 271 272 272 267 256 250 243 241 245 238 226 212 207
316 316 314 311 308 305 304 304 304 304 304 305 306 306 307 310 308 305 303 297 290 288 286 286 285 282 278 277 274 272 273 275 271 265 257 244 236 232 219 215 216 217 213
317 316 314 310 308 305 301 300 299 299 298 298 299 299 302 305 307 307 304 302 297 286 285 286 285 284 278 275 274 274 274 265 260 255 245 238 229 217 212 207 214 223 229
319 318 316 313 313 310 306 302 300 301 300 297 296 297 298 299 301 302 302 302 297 288 283 282 284 282 278 275 272 270 253 250 249 244 235 229 216 216 212 211 215 210 213
316 315 314 312 311 311 307 306 302 299 300 301 299 297 296 296 298 302 302 298 295 289 288 279 277 279 276 272 270 258 242 247 242 238 231 224 215 214 215 217 217 213 207
314 313 313 312 311 310 307 306 305 302 298 298 299 300 296 291 294 299 301 302 299 293 284 275 273 268 264 263 267 254 238 236 236 230 226 222 219 215 220 227 221 216 212
313 312 312 312 311 310 309 307 306 305 303 300 302 300 300 297 297 297 298 294 291 289 278 272 273 268 263 258 258 240 230 225 228 232 230 227 220 226 229 224 222 217 216
312 312 311 310 310 310 309 309 309 305 304 302 302 299 298 297 293 287 284 289 288 280 264 266 267 271 271 258 256 239 233 232 229 225 225 225 229 226 229 227 220 216 218
312 312 311 310 309 309 309 308 307 306 305 306 305 302 301 298 292 283 278 279 282 274 262 263 266 275 272 260 255 234 228 229 228 227 235 232 234 242 227 220 219 220 222
314 314 313 311 310 310 310 308 307 306 304 303 305 305 306 301 292 279 269 266 276 279 274 265 263 270 271 261 260 243 232 232 234 237 238 239 226 225 235 232 230 226 227
317 321 320 317 316 316 314 312 311 309 304 301 304 309 312 307 293 279 264 260 271 280 275 265 271 271 274 273 259 239 239 240 239 240 241 237 240 243 239 237 239 234 235
322 323 324 324 325 324 322 320 317 314 309 304 303 309 308 300 291 281 263 266 275 278 282 260 262 258 254 252 254 248 243 242 245 246 245 246 245 243 243 245 246 243 244
326 327 329 330 330 328 327 324 319 315 312 309 306 306 301 292 282 280 259 258 255 240 245 256 259 253 252 247 242 241 242 242 243 244 246 247 248 246 244 243 242 242 245
330 333 335 335 332 332 331 329 325 319 315 313 311 306 300 293 273 262 255 255 256 258 257 247 242 239 242 242 241 237 230 233 242 249 247 245 245 243 242 242 242 243 243
339 340 341 341 341 339 338 339 338 334 328 323 320 315 304 296 283 261 261 267 269 266 256 248 241 241 243 245 247 249 250 250 247 243 242 241 240 239 241 243 245 246 244
343 344 345 347 348 349 349 348 349 348 346 342 338 328 317 304 293 284 271 264 264 263 254 247 245 244 244 249 250 251 255 258 257 252 248 245 243 240 239 242 242 241 240
342 344 345 346 348 351 352 353 355 356 356 355 353 350 344 336 324 306 292 282 274 261 259 255 251 249 250 252 256 261 263 263 262 259 253 248 245 243 241 241 240 240 241
Wind_Speed_850mb
15 11 7 5 7 8 12 17 23 28 32 39 44 50 54 58 64 70 77 82 86 86 90 93 97 96 98 103 98 104 105 105 108 104 100 96 93 87 79 87 95 93 94
17 13 10 6 4 8 14 20 24 28 33 39 43 48 52 55 59 64 70 76 81 83 85 89 92 91 96 99 104 103 98 104 100 105 103 101 98 92 84 84 90 101 100
14 11 10 10 12 17 24 28 32 36 39 42 47 51 55 57 58 61 65 69 74 78 80 84 85 82 83 88 97 102 99 100 96 98 98 100 94 89 84 89 88 88 89
22 24 26 28 30 33 35 37 40 43 46 49 50 53 55 58 60 62 64 68 72 77 79 81 79 81 84 84 88 95 93 94 96 94 96 98 97 93 86 93 91 92 103
23 25 27 30 35 37 40 43 46 49 51 53 55 57 58 61 63 63 65 68 72 77 79 79 79 79 79 80 86 91 92 92 94 94 96 96 97 95 98 97 94 92 89
26 27 28 29 32 35 37 38 40 42 45 48 51 55 57 58 57 60 64 71 74 79 82 82 81 79 81 81 79 81 86 87 90 93 93 99 101 101 94 98 93 85 84
30 34 36 38 40 44 46 48 51 52 54 57 58 59 61 62 62 62 62 69 76 80 83 83 82 79 78 79 79 83 88 91 91 90 91 93 92 96 96 92 88 88 86
35 38 42 46 48 49 51 54 55 58 60 62 64 67 71 67 66 68 68 72 79 81 82 83 82 81 79 76 77 84 86 90 91 88 93 87 85 84 80 81 85 73 72
44 47 50 52 53 55 57 57 58 62 64 66 68 69 72 74 71 68 67 77 83 85 86 84 80 79 80 74 76 80 84 86 84 78 78 81 80 72 64 61 73 74 70
56 57 56 56 59 62 64 63 62 63 67 65 66 67 73 78 74 74 69 70 79 85 88 89 81 75 73 75 76 77 82 82 79 73 73 67 59 55 59 60 69 75 76
55 58 59 61 64 65 72 72 74 74 74 73 75 72 70 71 75 75 74 74 75 78 84 88 86 69 67 72 73 72 72 68 66 64 63 61 62 57 58 55 60 65 73
57 60 63 66 68 71 73 77 78 80 84 85 85 87 82 80 75 74 74 74 73 73 81 81 82 71 64 65 65 63 58 57 57 60 64 67 67 65 65 62 54 59 65
58 61 64 67 69 71 76 79 81 80 82 90 92 94 92 85 84 78 74 74 68 67 72 75 78 70 63 58 54 47 44 62 59 58 63 63 65 63 60 58 58 59 51
65 66 70 74 75 75 76 76 77 80 81 83 89 94 95 93 91 89 79 73 66 63 67 69 73 68 60 55 48 40 52 61 60 58 62 66 66 65 60 65 63 60 57
76 78 77 77 78 80 79 80 83 82 79 80 82 78 80 87 83 82 79 73 66 58 58 63 61 60 60 51 43 39 49 57 55 54 62 67 65 61 61 60 57 60 61
82 84 84 83 83 83 84 87 81 80 80 79 75 65 76 81 79 70 64 59 58 55 52 58 53 54 55 47 38 39 51 56 52 52 57 58 57 55 64 62 60 62 58
79 81 82 82 82 83 82 82 87 87 80 79 69 62 66 74 68 60 56 53 48 43 47 55 48 46 45 43 34 34 49 52 49 53 48 43 43 47 57 59 59 59 57
75 74 75 76 77 79 79 78 76 75 82 84 67 64 63 64 60 53 46 40 42 38 41 49 46 35 34 34 32 34 45 50 50 52 50 45 53 51 47 51 56 53 52
70 69 68 69 69 70 71 72 70 67 66 72 74 67 56 54 51 45 37 35 37 37 38 40 33 26 22 22 22 24 35 44 45 45 48 49 47 48 46 48 48 49 47
64 62 62 62 61 61 61 63 63 60 61 64 68 62 55 50 46 41 39 34 31 29 31 32 27 27 22 17 16 21 37 39 40 42 43 46 47 48 51 52 51 52 52
60 59 56 56 56 57 58 57 56 57 58 59 59 50 47 44 39 36 30 25 25 20 21 25 21 17 15 15 13 14 19 26 31 36 40 39 39 41 45 47 49 51 51
53 53 51 51 52 52 51 51 50 49 50 51 50 45 41 36 31 24 23 22 18 15 13 10 18 13 9 14 16 15 17 18 20 24 28 30 33 35 37 39 40 40 41
46 47 46 44 44 45 44 42 42 40 39 38 36 33 29 25 19 18 22 21 20 21 19 18 16 16 18 20 19 16 16 17 18 19 22 25 29 31 33 34 37 39 41
42 43 42 41 40 40 39 38 36 34 32 29 25 22 19 13 9 10 11 12 13 15 16 15 15 16 16 18 18 21 24 27 30 32 32 31 31 31 33 35 37 39 40
38 38 39 39 38 37 36 34 33 31 29 26 23 19 17 16 17 16 14 13 13 14 13 13 14 16 17 18 19 21 22 23 27 30 31 32 33 34 35 36 37 38 39
34 35 36 36 35 34 34 33 32 31 29 27 25 22 19 16 13 11 12 13 13 14 16 16 17 19 21 22 24 26 27 28 28 29 30 32 33 34 35 36 37 38 39
Wind_Direction_850mb
90 104 133 182 201 235 262 274 274 267 266 265 266 265 264 263 262 264 267 271 271 269 268 269 269 271 270 270 269 276 268 266 266 268 267 267 267 263 254 247 238 232 230
74 80 81 66 8 322 304 293 288 288 286 283 277 274 272 270 268 268 268 269 270 272 272 271 271 269 267 270 268 272 273 272 268 270 268 269 268 266 259 248 238 232 231
30 27 13 341 322 309 303 297 292 289 287 285 285 284 283 282 280 276 274 273 272 272 272 273 275 274 270 269 270 271 271 273 270 268 268 268 265 262 253 246 240 234 229
3 351 343 339 334 328 322 317 312 308 306 302 298 292 288 284 282 281 280 278 276 275 275 275 275 273 273 272 272 274 274 271 270 268 266 266 264 262 252 245 238 230 226
13 2 357 350 339 331 323 319 316 315 313 310 308 306 303 297 292 287 283 282 280 280 278 275 273 272 272 272 273 273 273 271 268 266 264 263 260 256 251 244 234 231 222
9 3 357 350 344 339 335 332 326 320 315 311 309 305 301 298 295 290 286 283 281 279 277 276 274 272 271 271 271 273 274 271 268 266 266 265 266 265 257 240 231 222 217
360 355 348 344 339 334 330 326 323 321 319 318 317 312 307 303 298 291 285 282 281 280 280 279 275 270 270 271 271 272 272 271 270 270 266 265 264 262 257 244 232 230 227
347 343 339 335 332 330 328 325 323 319 316 314 312 311 309 310 307 300 291 282 280 280 280 279 278 274 270 269 271 273 270 269 267 263 264 264 263 262 264 258 245 230 223
331 331 330 328 325 323 320 318 317 314 313 313 313 311 310 309 307 304 300 293 286 282 282 280 278 276 273 270 269 272 274 271 271 266 260 260 260 263 256 237 219 216 208
323 324 322 318 315 314 313 313 312 310 309 309 309 311 310 308 308 305 300 294 291 290 287 283 280 278 275 273 270 271 271 272 272 267 256 250 243 241 245 238 226 212 207
316 316 314 311 308 305 304 304 304 304 304 305 306 306 307 310 308 305 303 297 290 288 286 286 285 282 278 277 274 272 273 275 271 265 257 244 236 232 219 215 216 217 213
317 316 314 310 308 305 301 300 299 299 298 298 299 299 302 305 307 307 304 302 297 286 285 286 285 284 278 275 274 274 274 265 260 255 245 238 229 217 212 207 214 223 229
319 318 316 313 313 310 306 302 300 301 300 297 296 297 298 299 301 302 302 302 297 288 283 282 284 282 278 275 272 270 253 250 249 244 235 229 216 216 212 211 215 210 213
316 315 314 312 311 311 307 306 302 299 300 301 299 297 296 296 298 302 302 298 295 289 288 279 277 279 276 272 270 258 242 247 242 238 231 224 215 214 215 217 217 213 207
314 313 313 312 311 310 307 306 305 302 298 298 299 300 296 291 294 299 301 302 299 293 284 275 273 268 264 263 267 254 238 236 236 230 226 222 219 215 220 227 221 216 212
313 312 312 312 311 310 309 307 306 305 303 300 302 300 300 297 297 297 298 294 291 289 278 272 273 268 263 258 258 240 230 225 228 232 230 227 220 226 229 224 222 217 216
312 312 311 310 310 310 309 309 309 305 304 302 302 299 298 297 293 287 284 289 288 280 264 266 267 271 271 258 256 239 233 232 229 225 225 225 229 226 229 227 220 216 218
312 312 311 310 309 309 309 308 307 306 305 306 305 302 301 298 292 283 278 279 282 274 262 263 266 275 272 260 255 234 228 229 228 227 235 232 234 242 227 220 219 220 222
314 314 313 311 310 310 310 308 307 306 304 303 305 305 306 301 292 279 269 266 276 279 274 265 263 270 271 261 260 243 232 232 234 237 238 239 226 225 235 232 230 226 227
317 321 320 317 316 316 314 312 311 309 304 301 304 309 312 307 293 279 264 260 271 280 275 265 271 271 274 273 259 239 239 240 239 240 241 237 240 243 239 237 239 234 235
322 323 324 324 325 324 322 320 317 314 309 304 303 309 308 300 291 281 263 266 275 278 282 260 262 258 254 252 254 248 243 242 245 246 245 246 245 243 243 245 246 243 244
326 327 329 330 330 328 327 324 319 315 312 309 306 306 301 292 282 280 259 258 255 240 245 256 259 253 252 247 242 241 242 242 243 244 246 247 248 246 244 243 242 242 245
330 333 335 335 332 332 331 329 325 319 315 313 311 306 300 293 273 262 255 255 256 258 257 247 242 239 242 242 241 237 230 233 242 249 247 245 245 243 242 242 242 243 243
339 340 341 341 341 339 338 339 338 334 328 323 320 315 304 296 283 261 261 267 269 266 256 248 241 241 243 245 247 249 250 250 247 243 242 241 240 239 241 243 245 246 244
343 344 345 347 348 349 349 348 349 348 346 342 338 328 317 304 293 284 271 264 264 263 254 247 245 244 244 249 250 251 255 258 257 252 248 245 243 240 239 242 242 241 240
342 344 345 346 348 351 352 353 355 356 356 355 353 350 344 336 324 306 292 282 274 261 259 255 251 249 250 252 256 261 263 263 262 259 253 248 245 243 241 241 240 240 241